Flag for U.S.A. Weather past 2 weeks in Orange, California, U.S.A.

54 °F

Partly sunny.

Feels Like: 54 °F
Forecast: 44 / 62 °F
Wind: No wind

Location: John Wayne Airport-Orange County Airport

Current Time: Nov 27, 2015 at 9:56:27 AM

Latest Report: Nov 27, 2015 at 8:53 AM

Visibility: 10 mi

Pressure: 30.02 "Hg

Humidity: 69%

Dew point: 44 °F

Location of OrangeLocation

Historic Weather in Orange — Graph


Orange temperature yesterday

Maximum temperature yesterday: 62 °F (at 12:53 PM)
Minimum temperature yesterday: 49 °F (at 11:53 PM)
Average temperature yesterday: 55 °F

Past Weeks' High & Low Weather Summary

High87 °F (Nov 21, 1:53 PM)90% (Nov 25, 1:53 AM)30.18 "Hg (Nov 25, 1:53 AM)
Low43 °F (Nov 17, 4:53 AM)11% (Nov 17, 11:53 AM)29.85 "Hg (Nov 25, 2:53 AM)
Average61 °F50%29.95 "Hg
* Reported Nov 12 8:53 AM — Nov 27 8:53 AM, Orange, Weather by CustomWeather, © 2015

Note: Actual official high and low records may vary slightly from our data, if they occured in-between our weather recording intervals... More about our weather records


Orange weather history for previous 24 hours

Time TempWeatherWind HumidityBarometerVisibility
8:53 AM
Fri, Nov 27
54 °FPartly sunny.No wind69%30.02 "Hg10 mi
7:53 AM51 °FPartly sunny.6 mph77%30.01 "Hg10 mi
6:53 AM50 °FPartly sunny.7 mph77%30.00 "Hg10 mi
5:53 AM50 °FLight rain. Mostly cloudy.6 mph80%30.00 "Hg10 mi
4:53 AM52 °FLight rain. Mostly cloudy.5 mph66%29.99 "Hg10 mi
3:53 AM51 °FOvercast.3 mph66%29.98 "Hg10 mi
2:53 AM49 °FOvercast.No wind71%29.98 "Hg10 mi
1:53 AM50 °FPassing clouds.5 mph68%29.98 "Hg10 mi
12:53 AM52 °FOvercast.3 mph66%29.98 "Hg10 mi
11:53 PM
Thu, Nov 26
49 °FPassing clouds.3 mph71%29.99 "Hg10 mi
10:53 PM51 °FPassing clouds.6 mph66%30.00 "Hg10 mi
9:53 PM51 °FPassing clouds.3 mph63%30.00 "Hg10 mi
8:53 PM52 °FPassing clouds.3 mph61%30.00 "Hg10 mi
7:53 PM53 °FPassing clouds.No wind56%29.98 "Hg10 mi
6:53 PM56 °FPassing clouds.No wind49%29.98 "Hg10 mi
5:53 PM57 °FPassing clouds.No wind47%29.97 "Hg10 mi
4:53 PM58 °FPartly cloudy.5 mph50%29.96 "Hg10 mi
3:53 PM58 °FScattered clouds.7 mph54%29.96 "Hg10 mi
2:53 PM60 °FScattered clouds.9 mph47%29.96 "Hg10 mi
1:53 PM61 °FScattered clouds.12 mph46%29.96 "Hg10 mi
12:53 PM62 °FScattered clouds.6 mph50%29.96 "Hg10 mi
11:53 AM60 °FBroken clouds.6 mph49%29.98 "Hg10 mi
10:53 AM60 °FScattered clouds.3 mph49%30.01 "Hg10 mi
9:53 AM58 °FScattered clouds.6 mph50%30.02 "Hg10 mi
Weather by CustomWeather, © 2015

See weather overviewHow to use our weather pages